Weather Roundup
Issued by NWS Springfield, MO

Home | Current Version | Previous Version | Text Only | Print | Product List | Glossary On
Versions: 1 2 3 4 5 6 7 8 9 10 11 12 13 14 15 16 17 18 19 20 21 22 23 24 25 26 27 28 29 30 31 32 33 34 35 36 37 38 39 40 41 42 43 44 45 46 47 48 49 50
000
NZUS99 KSGF 170159
HRRSGF

HOURLY WEATHER
NATIONAL WEATHER SERVICE SPRINGFIELD MO
900 PM CDT WED APR 16 2014

......SGF CWA......

CITY           SKY/WX    TMP DP  RH WIND       PRES   REMARKS
SPRINGFIELD    CLEAR     51  28  41 S8        30.03R
JOPLIN         CLEAR     53  31  42 S8        30.01R
WEST PLAINS    CLEAR     46  28  49 SE7       30.08R
ROLLA          PTCLDY    48  28  46 S9        30.05R
OSAGE BEACH    PTCLDY    54  27  35 S10G16    30.05R
BRANSON        PTCLDY    50  28  43 SE7       30.05R

......SURROUNDING SGF CWA......

CITY           SKY/WX    TMP DP  RH WIND       PRES   REMARKS
CHANUTE        CLEAR     53  34  48 S9        29.96R
PARSONS        CLEAR     57  32  38 S8        29.98R
COFFEYVILLE    CLEAR     57  33  40 S12       29.98R
EMPORIA        MOCLDY    59  32  36 S13       29.91R
SILOAM SPRINGS CLEAR     54  28  37 S6        30.05R
HARRISON AR    CLEAR     50  29  44 SE9       30.05R
NEAR YELLVILLE CLEAR     54  25  32 SE5       30.07R

......KANSAS AND MISSOURI......

CITY           SKY/WX    TMP DP  RH WIND       PRES   REMARKS
KANSAS CTY INT MOCLDY    59  30  33 W16G31    29.91R
DOWNTOWN KC    PTCLDY    60  32  34 S15G21    29.90R
COLUMBIA       CLEAR     52  27  38 S13       30.02R
SEDALIA        CLEAR     53  31  42 S12       29.98R
ST JOSEPH      MOCLDY    54  36  50 NW16      29.94R
ST LOUIS       MOCLDY    53  25  33 S17       30.08R
SPIRIT OF STL  CLEAR     52  22  30 S8        30.08R
KIRKSVILLE     PTCLDY    51  31  46 S14       29.94R
WICHITA        PTCLDY    62  30  29 S7        29.92R
TOPEKA         MOCLDY    56  37  49 N17G26    29.97R
OLATHE         PTCLDY    55  32  41 S13       29.91R

......TENNESSEE......

CITY           SKY/WX    TMP DP  RH WIND       PRES   REMARKS
MEMPHIS        PTCLDY    54  31  41 S3        30.13R
NASHVILLE      MOCLDY    52  31  44 NE6       30.19R

......ARKANSAS.......

CITY           SKY/WX    TMP DP  RH WIND       PRES   REMARKS
FAYETTEVILLE   CLEAR     49  33  54 CALM      30.05R
FT SMITH       CLEAR     58  31  35 SE6       30.04R
LITTLE ROCK    MOCLDY    51  36  56 SE6       30.12R

......OKLAHOMA.......

CITY           SKY/WX    TMP DP  RH WIND       PRES   REMARKS
TULSA          MOCLDY    60  34  37 S10       29.99R
PONCA CITY     CLEAR     62  30  29 S8        29.94R
MCALESTER      PTCLDY    56  32  40 SE5       30.03R
OKLAHOMA CITY  MOCLDY    57  33  40 SE12      29.96R

......IOWA............

CITY           SKY/WX    TMP DP  RH WIND       PRES   REMARKS
DES MOINES     LGT RAIN  52  35  52 NW17      29.85R
QUAD CITIES    CLOUDY    50  27  40 SE14G23   30.02S

......ILLINOIS........

CITY           SKY/WX    TMP DP  RH WIND       PRES   REMARKS
QUINCY         PTCLDY    48  29  47 SE10      30.02R
CHICAGO        CLOUDY    47  23  38 SE22      30.13S



USA.gov is the U.S. government's official web portal to all federal, state and local government web resources and services.